Location: Sunny Point
(33.0946°N, 85.0574°W)
Time: 07:43:12
(UTC+00:00)

Envisat - Pass Details

Date: 24 May 2024
Orbit: 762 x 764 km, 98.3° (Epoch: 20 June)

Event Time Altitude Azimuth Distance (km) Brightness Sun altitude
Rises 07:39:45 0° 36° (NE) 3,228 7.5 -28.6°
Reaches altitude 10° 07:43:11 10° 61° (ENE) 2,297 6.2 -28.2°
Maximum altitude 07:45:52 14° 93° (E) 2,003 5.5 -27.9°
Drops below altitude 10° 07:48:33 10° 125° (SE) 2,289 5.4 -27.6°
Enters shadow 07:48:41 10° 127° (SE) 2,317 5.5 -27.6°
